Weather in Zmioyvka

Russia / Oryol Oblast     52°40′00″N   36°22′31″E
temp.,
°C
wind,
m/s
gust,
m/s
humid.,
%
clouds,
%
prec.,
mm/h
press.,
hPa
HPBL,
m
12 may, wed
wed1200:00+6ese412850 0.0 1025324
03:00+5e38935 0.0 1025162
06:00+6ene410904 0.0 1025245
09:00+11e4669100 0.0 1023648
12:00+13ene5561100 0.1 10211285
15:00+12ene4567100 0.4 10191235
18:00+12e467611 0.2 1018968
21:00+9e5118899 0.2 1017306
13 may, thu
thu1300:00+8ese6149049 0.0 1016412
03:00+8se51196100 0.3 1016386
06:00+8se6139560 0.5 1016613
09:00+11sse7118098 0.5 1016906
12:00+9se51096100 1.9 1016534
15:00+13sse577957 2.8 1015840
18:00+14s467299 0.1 1014914
21:00+10sse3490100 0.2 101653
14 may, fri
fri1400:00+9sse34935 0.0 101664
03:00+8se3693100 0.0 101696
06:00+10ese3893100 0.0 1016172
09:00+16ese61084100 0.1 1014421
12:00+20se7971100 0.0 10131087
15:00+21sse7106978 1.1 10121297
18:00+20sse5107645 1.3 1010423
21:00+17sse51285100 6.1 1011277
15 may, sat
sat1500:00+15sse4992100 1.0 1010175
03:00+15ese489496 5.0 1010167
06:00+14ese4896100 0.0 1009232
09:00+18s4687100 0.2 1009456
12:00+21ssw68704 1.7 10101222
15:00+21ssw6964100 2.1 10101725
18:00+17sw5107987 1.1 1011728
21:00+14sw34922 1.6 101284
16 may, sun
sun1600:00+12wsw229326 0.0 101317
03:00+11sw11930 0.0 101310
06:00+12wsw22930 0.0 101458
09:00+16w22763 0.0 1015475
12:00+19sw116283 0.0 10151012
15:00+21e1258100 0.0 10151262
18:00+20ne3471100 0.0 1014172
21:00+16ne4882100 0.0 1014119